Regional Weather Roundup
Issued by NWS

Home | Current Version | Previous Version | Graphics & Text | Print | Product List | Glossary On
Versions: 1 2 3 4 5 6 7 8 9 10 11 12 13 14 15 16 17 18 19 20 21 22 23 24 25 26 27 28 29 30 31 32 33 34 35 36 37 38 39 40 41 42 43 44 45 46 47 48 49 50
000
ASUS43 KDMX 250508
RWRIA

WEATHER ROUNDUP FOR IOWA
NATIONAL WEATHER SERVICE DES MOINES IA
1200 AM CDT MON JUL 25 2016

NOTE: "FAIR" INDICATES FEW OR NO CLOUDS BELOW 12,000 FEET WITH NO
SIGNIFICANT WEATHER AND/OR OBSTRUCTIONS TO VISIBILITY.

* - THESE STATIONS ARE NOT NWS STATIONS...THUS NOT UNDER NWS
QUALITY CONTROL.  THEY ALSO DO NOT REPORT WEATHER SUCH
AS PRECIPITATION OR FOG.

IAZ001>003-012>014-020>022-031>034-043>046-250600-
   NORTHWEST IOWA

CITY           SKY/WX    TMP DP  RH WIND       PRES   REMARKS
CARROLL *      PTCLDY    68  66  94 NW5       30.05S
CHEROKEE *     CLEAR     67  65  93 CALM      30.08S
LE MARS *      CLEAR     68  64  88 CALM      30.09S
SHELDON *      CLEAR     64  63  94 W3        30.06F
SIOUX CITY     CLEAR     68  64  87 NW7       30.08R
SPENCER        CLEAR     64  61  90 W5        30.07S
STORM LAKE *   CLOUDY    68  63  83 NW8       30.08F
$$

IAZ055>058-069>071-079>083-090>094-250600-
   SOUTHWEST IOWA

CITY           SKY/WX    TMP DP  RH WIND       PRES   REMARKS
ATLANTIC *     CLEAR     68  66  94 NE5       30.04S
CLARINDA *       N/A     68  68 100 MISG      30.06S
COUNCIL BLFS *   N/A     72  66  83 N7        30.06R
CRESTON *      CLEAR     72  68  88 NE8G14    30.04S
HARLAN  *      PTCLDY    68  66  94 N3        30.09S
LAMONI         CLOUDY    74  67  78 N3        30.03R
RED OAK *      CLEAR     70  68  94 N6        30.04R
SHENANDOAH *     N/A     70  70 100 CALM      30.04S
$$

IAZ047>049-059>061-072>074-084-250600-
   CENTRAL IOWA

CITY           SKY/WX    TMP DP  RH WIND       PRES   REMARKS
AMES           CLOUDY    70  66  87 NW8       30.03R
ANKENY *         N/A    N/A N/A N/A MISG        N/A
BOONE *        CLOUDY    72  64  78 NW7       30.03S
CHARITON *       N/A    N/A N/A N/A MISG        N/A
DES MOINES     CLEAR     75  65  70 N5        30.01S
GRINNELL*      CLOUDY    68  65  89 NW6       30.02R
KNOXVILLE *    CLEAR     72  66  83 N8        30.00R
MARSHALLTOWN   CLEAR     69  65  86 NW9       30.00S
NEWTON *       CLOUDY    72  68  88 N10       30.01S
PELLA *        CLOUDY    71  66  83 N5        30.02R
PERRY *          N/A     68  66  94 NW3       30.04S
$$

IAZ004>006-015-016-023>025-035-036-250600-
   NORTH CENTRAL IOWA

CITY           SKY/WX    TMP DP  RH WIND       PRES   REMARKS
ALGONA *       CLEAR     68  64  88 W6        30.05F
ESTHERVILLE    CLEAR     66  64  93 W7        30.05S
FORT DODGE *   CLEAR     68  64  88 MISG      30.05F
MASON CITY     CLEAR     66  63  90 W7        30.05S
FOREST CITY *    N/A     64  64 100 W5        30.04S
IOWA FALLS *     N/A     68  65  90 NW5       30.04S
$$

IAZ007>011-017>019-026>030-037>042-050>054-066-250600-
   NORTHEAST IOWA

CITY           SKY/WX    TMP DP  RH WIND       PRES   REMARKS
CEDAR RAPIDS   PTCLDY    68  68 100 NW6       29.99R
CHARLES CITY * CLOUDY    68  66  94 NW8       30.02S
CLINTON *      CLOUDY    71  68  90 NW6       29.97R
DECORAH *      CLOUDY    70  66  88 NW8       29.98S
DUBUQUE        PTCLDY    72  65  78 NW13      29.99R
MONTICELLO *   CLEAR     70  66  88 CALM      29.99R
OELWEIN *      CLOUDY    68  66  94 NW9       30.00R
WATERLOO       MOCLDY    69  65  86 CALM      29.99R
$$

IAZ064-065-067-068-078-250600-
   EAST CENTRAL IOWA

CITY           SKY/WX    TMP DP  RH WIND       PRES   REMARKS
DAVENPORT      CLOUDY    72  68  87 NW5       29.97R
IOWA CITY      PTCLDY    76  66  71 N14       29.99R
MT. PLEASANT * CLOUDY    76  71  84 NW7       29.99R
MUSCATINE *    CLOUDY    75  68  78 N9        29.96R
QUAD CITIES    CLOUDY    79  66  64 N7        29.95R HX  81
$$

IAZ062-063-075>077-085>089-095>099-250600-
   SOUTHEAST IOWA

CITY           SKY/WX    TMP DP  RH WIND       PRES   REMARKS
BURLINGTON     MOCLDY    75  72  90 N6        29.98R
FAIRFIELD *    CLOUDY    73  68  83 N6        29.98R
KEOKUK *       CLOUDY    75  72  88 N5        29.97R
CENTERVILLE *    N/A     73  68  83 N7        30.02R
OTTUMWA        CLOUDY    72  67  84 NW8       30.00R
WASHINGTON *   CLOUDY    73  68  83 N5        30.00R
$$

ABBREVIATIONS USED IN REMARKS
   TC - TEMPERATURES IN CELSIUS
  WCI - WIND CHILL INDEX
   HX - HEAT INDEX
  VSB - VISIBILITY
$$





USA.gov is the U.S. government's official web portal to all federal, state and local government web resources and services.